When you browse on this site, cookies collect data to enhance your experience and personalize the content and advertising you see.
Visit our Privacy Policy to learn more. By continuing to use the site, you agree to this use of cookies and data.
  • In Österreich
  • Länderverzeichnis
  • Für 7 Tage
  • Wassertemperatur
  • Satellitenkarten
  • Wetterkarte
  • News
  • Widgets
  • user-avatar
    Anmelden

    Stündliche Wetter Coronado

    Heute, 20 Juni, Donnerstag

    Zeit Temperatur Niederschläge Wind Luftdruck Luftfeuchtigkeit
    00:00 +21°C° 0 mm 1 m/S 760 mmHg 78%
    01:00 +20°C° 0 mm 1 m/S 760 mmHg 80%
    02:00 +20°C° 0 mm 1 m/S 760 mmHg 80%
    03:00 +20°C° 0 mm 1 m/S 760 mmHg 81%
    04:00 +20°C° 0 mm 1 m/S 759 mmHg 80%
    05:00 +20°C° 0 mm 1 m/S 759 mmHg 77%
    06:00 +20°C° 0 mm 1 m/S 760 mmHg 75%
    07:00 +21°C° 0 mm 1 m/S 760 mmHg 73%
    08:00 +21°C° 0 mm 2 m/S 760 mmHg 68%
    09:00 +23°C° 0 mm 2 m/S 760 mmHg 62%
    10:00 +24°C° 0 mm 3 m/S 760 mmHg 57%
    11:00 +24°C° 0 mm 3 m/S 759 mmHg 54%
    12:00 +25°C° 0 mm 3 m/S 759 mmHg 52%
    13:00 +25°C° 0 mm 3 m/S 759 mmHg 49%
    14:00 +25°C° 0 mm 3 m/S 758 mmHg 50%
    15:00 +25°C° 0 mm 3 m/S 758 mmHg 52%
    16:00 +24°C° 0 mm 3 m/S 758 mmHg 53%
    17:00 +22°C° 0 mm 3 m/S 758 mmHg 57%
    18:00 +21°C° 0 mm 2 m/S 758 mmHg 62%
    19:00 +21°C° 0 mm 2 m/S 758 mmHg 66%
    20:00 +20°C° 0 mm 2 m/S 758 mmHg 68%
    21:00 +21°C° 0 mm 1 m/S 758 mmHg 71%
    22:00 +20°C° 0 mm 1 m/S 758 mmHg 73%
    23:00 +20°C° 0 mm 1 m/S 758 mmHg 73%

    Morgen, 21 Juni, Freitag

    Zeit Temperatur Niederschläge Wind Luftdruck Luftfeuchtigkeit
    00:00 +19°C° 0 mm 2 m/S 758 mmHg 74%
    01:00 +19°C° 0 mm 2 m/S 758 mmHg 74%
    02:00 +19°C° 0.1 mm 2 m/S 758 mmHg 75%
    03:00 +19°C° 0.1 mm 2 m/S 758 mmHg 75%
    04:00 +19°C° 0.1 mm 2 m/S 758 mmHg 76%
    05:00 +19°C° 0.1 mm 2 m/S 758 mmHg 74%
    06:00 +20°C° 0.1 mm 2 m/S 758 mmHg 73%
    07:00 +20°C° 0.1 mm 2 m/S 758 mmHg 71%
    08:00 +20°C° 0 mm 3 m/S 758 mmHg 68%
    09:00 +21°C° 0 mm 3 m/S 758 mmHg 66%
    10:00 +21°C° 0 mm 3 m/S 758 mmHg 63%
    11:00 +22°C° 0 mm 3 m/S 758 mmHg 62%
    12:00 +22°C° 0 mm 4 m/S 758 mmHg 61%
    13:00 +23°C° 0 mm 4 m/S 757 mmHg 59%
    14:00 +22°C° 0 mm 4 m/S 757 mmHg 60%
    15:00 +22°C° 0 mm 4 m/S 757 mmHg 61%
    16:00 +22°C° 0 mm 4 m/S 757 mmHg 62%
    17:00 +21°C° 0 mm 3 m/S 757 mmHg 64%
    18:00 +20°C° 0 mm 3 m/S 757 mmHg 66%
    19:00 +20°C° 0 mm 3 m/S 758 mmHg 68%
    20:00 +19°C° 0 mm 3 m/S 758 mmHg 69%
    21:00 +19°C° 0 mm 3 m/S 758 mmHg 70%
    22:00 +19°C° 0 mm 3 m/S 758 mmHg 70%
    23:00 +19°C° 0 mm 2 m/S 758 mmHg 70%

    übermorgen, 22 Juni, Samstag

    Zeit Temperatur Niederschläge Wind Luftdruck Luftfeuchtigkeit
    00:00 +18°C° 0 mm 2 m/S 758 mmHg 69%
    01:00 +18°C° 0 mm 2 m/S 759 mmHg 69%
    02:00 +18°C° 0 mm 2 m/S 758 mmHg 68%
    03:00 +18°C° 0 mm 2 m/S 758 mmHg 67%
    04:00 +18°C° 0 mm 2 m/S 758 mmHg 66%
    05:00 +18°C° 0 mm 2 m/S 759 mmHg 65%
    06:00 +19°C° 0 mm 2 m/S 759 mmHg 64%
    07:00 +20°C° 0 mm 1 m/S 759 mmHg 64%
    08:00 +20°C° 0 mm 2 m/S 759 mmHg 59%
    09:00 +21°C° 0 mm 2 m/S 759 mmHg 54%
    10:00 +24°C° 0 mm 3 m/S 759 mmHg 49%
    11:00 +24°C° 0 mm 3 m/S 759 mmHg 48%
    12:00 +25°C° 0 mm 3 m/S 759 mmHg 47%
    13:00 +25°C° 0 mm 4 m/S 759 mmHg 47%
    14:00 +25°C° 0 mm 3 m/S 758 mmHg 48%
    15:00 +25°C° 0 mm 3 m/S 758 mmHg 49%
    16:00 +24°C° 0 mm 3 m/S 758 mmHg 51%
    17:00 +24°C° 0 mm 2 m/S 758 mmHg 54%
    18:00 +23°C° 0 mm 2 m/S 758 mmHg 56%
    19:00 +21°C° 0 mm 2 m/S 759 mmHg 59%
    20:00 +21°C° 0 mm 2 m/S 759 mmHg 61%
    21:00 +21°C° 0 mm 1 m/S 759 mmHg 63%
    22:00 +21°C° 0 mm 1 m/S 760 mmHg 65%
    23:00 +21°C° 0 mm 1 m/S 760 mmHg 66%

    23 Juni, Sonntag

    Zeit Temperatur Niederschläge Wind Luftdruck Luftfeuchtigkeit
    00:00 +20°C° 0 mm 1 m/S 759 mmHg 67%
    01:00 +20°C° 0 mm 1 m/S 759 mmHg 68%
    02:00 +20°C° 0 mm 1 m/S 759 mmHg 70%
    03:00 +20°C° 0 mm 1 m/S 759 mmHg 71%
    04:00 +20°C° 0 mm 1 m/S 759 mmHg 72%
    05:00 +20°C° 0 mm 1 m/S 759 mmHg 70%
    06:00 +21°C° 0 mm 1 m/S 759 mmHg 67%
    07:00 +22°C° 0 mm 1 m/S 760 mmHg 64%
    08:00 +23°C° 0 mm 2 m/S 760 mmHg 59%
    09:00 +25°C° 0 mm 2 m/S 760 mmHg 53%
    10:00 +26°C° 0 mm 3 m/S 760 mmHg 47%
    11:00 +27°C° 0 mm 3 m/S 760 mmHg 47%
    12:00 +28°C° 0 mm 3 m/S 759 mmHg 46%
    13:00 +28°C° 0 mm 4 m/S 759 mmHg 46%
    14:00 +28°C° 0 mm 4 m/S 758 mmHg 47%
    15:00 +27°C° 0 mm 4 m/S 758 mmHg 49%
    16:00 +27°C° 0 mm 4 m/S 758 mmHg 50%
    17:00 +26°C° 0 mm 3 m/S 758 mmHg 54%
    18:00 +25°C° 0 mm 3 m/S 758 mmHg 58%
    19:00 +24°C° 0 mm 3 m/S 758 mmHg 62%
    20:00 +24°C° 0 mm 2 m/S 758 mmHg 65%
    21:00 +23°C° 0 mm 2 m/S 759 mmHg 69%
    22:00 +21°C° 0 mm 2 m/S 759 mmHg 72%
    23:00 +21°C° 0 mm 2 m/S 758 mmHg 74%

    24 Juni, Montag

    Zeit Temperatur Niederschläge Wind Luftdruck Luftfeuchtigkeit
    00:00 +21°C° 0 mm 2 m/S 758 mmHg 75%
    01:00 +20°C° 0 mm 2 m/S 758 mmHg 77%
    02:00 +20°C° 0 mm 2 m/S 758 mmHg 77%
    03:00 +20°C° 0 mm 2 m/S 757 mmHg 78%
    04:00 +20°C° 0 mm 2 m/S 757 mmHg 78%
    05:00 +21°C° 0 mm 2 m/S 757 mmHg 75%
    06:00 +21°C° 0 mm 2 m/S 758 mmHg 73%
    07:00 +23°C° 0 mm 2 m/S 758 mmHg 70%
    08:00 +24°C° 0 mm 2 m/S 758 mmHg 64%
    09:00 +26°C° 0 mm 3 m/S 758 mmHg 58%
    10:00 +27°C° 0 mm 3 m/S 758 mmHg 53%
    11:00 +27°C° 0 mm 3 m/S 758 mmHg 51%
    12:00 +27°C° 0 mm 3 m/S 757 mmHg 50%
    13:00 +28°C° 0 mm 3 m/S 757 mmHg 49%
    14:00 +27°C° 0 mm 3 m/S 757 mmHg 48%
    15:00 +27°C° 0 mm 3 m/S 757 mmHg 48%
    16:00 +27°C° 0 mm 3 m/S 757 mmHg 48%
    17:00 +26°C° 0 mm 3 m/S 757 mmHg 52%
    18:00 +25°C° 0 mm 2 m/S 757 mmHg 55%
    19:00 +24°C° 0 mm 2 m/S 757 mmHg 59%
    20:00 +23°C° 0 mm 2 m/S 757 mmHg 62%
    21:00 +23°C° 0 mm 2 m/S 757 mmHg 65%
    22:00 +22°C° 0 mm 1 m/S 758 mmHg 68%
    23:00 +22°C° 0 mm 1 m/S 757 mmHg 70%

    25 Juni, Dienstag

    Zeit Temperatur Niederschläge Wind Luftdruck Luftfeuchtigkeit
    00:00 +21°C° 0 mm 1 m/S 757 mmHg 72%
    01:00 +21°C° 0 mm 1 m/S 757 mmHg 74%
    02:00 +21°C° 0 mm 1 m/S 757 mmHg 75%
    03:00 +20°C° 0 mm 1 m/S 757 mmHg 76%
    04:00 +18°C° 0 mm 0 m/S 756 mmHg 77%
    05:00 +21°C° 0 mm 1 m/S 757 mmHg 74%
    06:00 +22°C° 0 mm 1 m/S 757 mmHg 71%
    07:00 +22°C° 0 mm 1 m/S 757 mmHg 68%
    08:00 +24°C° 0 mm 1 m/S 757 mmHg 62%
    09:00 +25°C° 0 mm 2 m/S 757 mmHg 56%
    10:00 +26°C° 0 mm 3 m/S 758 mmHg 50%
    11:00 +27°C° 0 mm 3 m/S 757 mmHg 49%
    12:00 +27°C° 0 mm 3 m/S 757 mmHg 47%
    13:00 +27°C° 0 mm 4 m/S 757 mmHg 46%
    14:00 +27°C° 0 mm 3 m/S 757 mmHg 47%
    15:00 +27°C° 0 mm 3 m/S 757 mmHg 47%
    16:00 +27°C° 0 mm 3 m/S 757 mmHg 48%
    17:00 +25°C° 0 mm 3 m/S 757 mmHg 53%
    18:00 +24°C° 0 mm 2 m/S 757 mmHg 58%
    19:00 +23°C° 0 mm 2 m/S 757 mmHg 62%
    20:00 +23°C° 0 mm 2 m/S 758 mmHg 65%
    21:00 +21°C° 0 mm 2 m/S 758 mmHg 67%
    22:00 +21°C° 0 mm 2 m/S 758 mmHg 70%
    23:00 +21°C° 0 mm 1 m/S 758 mmHg 71%
    Mehr zeigen